Location: Hamburg
(53.5500°N, 10.0000°E)
Time: 06:51:09
(UTC+02:00)

Daily predictions for brighter satellites

Satellite Brightness Start Highest point End
(mag) Time Altitude Azimuth Time Altitude Azimuth Time Altitude Azimuth
Cosmos 1125 Rocket 4.0 22:09:41 10° S 22:14:34 41° ESE 22:19:26 10° NE
ATLAS 3B R/B 3.6 22:10:44 10° WSW 22:17:58 59° NNW 22:24:52 10° NE
MetOp-B 4.4 22:13:23 10° S 22:18:44 71° WSW 22:24:07 10° NNW
Terra 2.6 22:14:51 10° SE 22:19:16 39° ENE 22:23:43 10° N
Cosmos 1733 Rocket 4.0 22:18:27 10° SSE 22:22:15 31° E 22:26:04 10° NNE
Meteor 2-3 Rocket 4.3 22:18:46 10° SSW 22:24:27 65° WNW 22:30:06 10° N
Cosmos 1867 3.8 22:19:07 10° NW 22:24:36 70° NE 22:30:03 10° SE
Aureole 3 2.5 22:21:38 10° S 22:24:37 85° E 22:27:41 10° NNE
ARGOS 3.4 22:22:01 10° S 22:27:22 72° WSW 22:32:45 10° NNW
Cosmos 1869 Rocket 3.7 22:23:29 10° SSW 22:27:49 82° W 22:32:15 10° N
SPOT 5 3.3 22:23:09 10° SSE 22:28:32 79° WSW 22:33:50 10° NNW
ISS -2.5 22:32:26 10° SSW 22:34:56 21° SSE 22:37:27 10° E
Nadezhda 4 Rocket 4.3 22:31:00 10° SSE 22:36:56 49° E 22:42:50 10° NNE
H-2A R/B 2.2 22:31:35 10° SSE 22:37:01 84° WSW 22:42:21 10° NNW
Helios 1B rocket 3.8 22:34:46 10° N 22:38:41 42° WNW 22:42:35 10° SW
Cosmos 1782 4.0 22:37:55 10° NNW 22:41:42 40° W 22:45:27 10° SSW
Cosmos 1437 3.3 22:40:14 10° N 22:43:21 42° ENE 22:45:57 13° SE
Cosmos 494 Rocket 4.1 22:38:52 10° NNW 22:44:08 71° ENE 22:48:58 12° SE
Cosmos 2227 Rocket 3.5 22:41:09 10° NNW 22:46:14 33° NE 22:51:18 10° ESE
Cosmos 2219 3.5 22:44:56 10° NNW 22:50:40 67° NE 22:55:57 12° SE
Lacrosse 4 Rocket 2.3 22:46:55 10° NW 22:51:15 46° WSW 22:55:23 11° S
Cosmos 1674 Rocket 3.5 22:48:02 10° N 22:52:25 79° ENE 22:56:27 12° SSE
SOZ 4.3 22:49:39 10° W 22:52:41 64° S 22:54:44 10° E
Cosmos 1378 Rocket 4.0 22:49:45 10° N 22:54:05 50° ENE 22:57:47 14° SSE
Gbstr 26 Del rocket 2.9 22:49:28 10° W 22:54:11 69° S 22:58:09 10° ESE
Molniya-1 2.7 22:53:48 18° S 22:54:38 31° SE 22:56:10 10° ENE
Cosmos 1346 3.3 22:52:04 10° N 22:54:43 46° ENE 22:56:33 17° SE
CARTOSAT-1 3.6 22:50:45 12° SSE 22:54:45 74° ENE 22:59:06 10° NNW
NOSS 3-2 (A) 4.1 22:51:05 10° WSW 22:57:20 68° NW 23:04:20 10° NE
COSMOS 2455 2.9 22:55:30 10° SW 23:01:32 85° NW 23:07:36 10° NE
Cosmos 1408 3.7 23:01:35 10° SSW 23:05:11 46° WNW 23:08:50 10° N
Cosmos 1862 3.4 23:02:41 10° SSW 23:06:41 82° WNW 23:10:41 10° N
Cosmos 1825 3.2 23:03:49 10° SSW 23:07:30 47° WNW 23:11:11 10° N
ATLAS CENTAUR R/B 3.3 23:08:08 11° ESE 23:08:08 11° ESE 23:09:28 10° E
Cosmos 1943 Rocket 2.1 23:06:02 10° SSW 23:11:37 81° ESE 23:17:12 10° NNE
H-2A R/B 2.0 23:08:38 16° SSE 23:11:53 72° ENE 23:16:01 10° NNW
Cosmos 2263 4.3 23:07:52 10° SSW 23:13:40 85° WNW 23:19:26 10° NNE
DMSP B5D2-2 4.0 23:11:28 10° NNE 23:16:43 77° ESE 23:21:56 10° S
NOSS 3-2 (C) 4.1 23:11:00 10° WSW 23:17:15 67° NW 23:24:17 10° NE
Cosmos 1812 2.9 23:19:05 10° N 23:22:57 61° ENE 23:25:32 20° SSE
Okean 3 3.5 23:21:56 10° NNW 23:26:08 77° W 23:29:21 17° S
Cosmos 2344 3.7 23:19:36 10° SSW 23:27:08 63° SE 23:36:03 10° NE
Cosmos 2251 Rocket 3.7 23:23:02 10° NNW 23:28:16 68° WSW 23:32:18 17° S
Cosmos 2369 Rocket 3.0 23:23:14 10° SW 23:28:48 55° NW 23:34:26 10° NNE
DNEPR-1 R/B 3.5 23:24:22 10° SW 23:29:14 80° SE 23:33:34 10° NE
DELTA 2 DEB (DPAF) 4.3 23:28:47 19° SSE 23:31:58 68° ENE 23:36:26 10° N
CZ-4C R/B 3.7 23:30:08 19° SSE 23:33:03 61° ENE 23:37:08 10° N
Cosmos 1908 Rocket 3.6 23:30:01 16° S 23:33:31 68° E 23:37:57 10° NNE
Cosmos 1655 Rocket 4.5 23:29:36 17° SSE 23:34:07 45° E 23:40:02 10° NNE
Okean 1 3.9 23:30:16 10° N 23:34:10 46° ENE 23:36:35 21° SE
CENTAUR R/B 2.6 23:29:26 10° SW 23:35:44 84° SE 23:43:03 10° NE
IGS 5A 4.1 23:32:30 14° S 23:35:52 48° W 23:39:56 10° NNW
Okean 2 Rocket 3.9 23:36:04 20° SE 23:38:30 35° E 23:42:32 10° NNE
Cosmos 2297 Rocket 2.7 23:35:51 10° NNW 23:41:27 53° NE 23:46:06 15° SE
CZ-4C R/B 3.6 23:35:27 10° NW 23:41:46 48° NNE 23:48:59 10° E
Cosmos 405 Rocket 2.6 23:39:11 10° NNW 23:42:56 85° ENE 23:45:04 24° SSE
Cosmos 1633 3.9 23:42:18 20° ESE 23:43:37 25° E 23:46:35 10° NE
deb Chang Zheng 4 3.7 23:40:56 10° NNE 23:45:21 61° ESE 23:48:23 20° S
Lacrosse 5 rocket 0.9 23:43:05 10° WSW 23:46:42 76° SSE 23:50:30 10° ENE
ATLAS 5 CENTAUR R/B 4.0 23:45:47 10° WNW 23:50:14 22° WSW 23:54:50 10° SSW
ARGOS Delta rocket 3.8 23:46:01 10° NNE 23:50:34 58° E 23:53:20 22° S
